Location: Wavehorne
(51.0500°N, 0.8333°E)
Time: 15:16:53
(UTC+00:00)

Cosmos 2292 Rocket - Pass Details

Date: 20 June 2021
Orbit: 381 x 1445 km, 83.0° (Epoch: 31 July)

Event Time Altitude Azimuth Distance (km) Brightness Sun altitude
Exits shadow 02:09:51 10° 170° (S) 1,451 5.0 -10.1°
Reaches altitude 10° 02:09:55 10° 170° (S) 1,418 5.0 -10.1°
Maximum altitude 02:12:47 46° 95° (E) 526 3.4 -9.8°
Drops below altitude 10° 02:15:43 10° 20° (NNE) 1,452 7.0 -9.6°
Sets 02:17:50 0° 14° (NNE) 2,379 8.2 -9.4°
